Weather History for KOLY - May, 2012

Change the Weather History Date:

Wednesday, May 9, 2012

  Actual Average (KEVV) Record (KEVV)
Temperature  
Mean Temperature 62 °F 64 °F  
Max Temperature 71 °F 75 °F 90 °F (1963)
Min Temperature 53 °F 52 °F 34 °F (1980)
Degree Days  
Heating Degree Days 3 4  
Month to date heating degree days 39  
Since 1 July heating degree days 4494  
Cooling Degree Days 0 2  
Month to date cooling degree days 15  
Year to date cooling degree days 42  
Growing Degree Days 12 (Base 50)    
Moisture  
Dew Point 47 °F    
Average Humidity 60    
Maximum Humidity 82    
Minimum Humidity 38    
Precipitation  
Precipitation 0.00 in 0.18 in 1.82 in (1949)
Month to date precipitation 1.55  
Year to date precipitation 16.43  
Snow  
Snow 0.00 in 0.00 in T in (1993)
Month to date snowfall 0.0  
Since 1 July snowfall 11.8  
Snow Depth -    
Sea Level Pressure  
Sea Level Pressure 29.93 in    
Wind  
Wind Speed 6 mph (WNW)    
Max Wind Speed 18 mph    
Max Gust Speed 24 mph    
Visibility 10 miles    
Events      
T = Trace of Precipitation, MM = Missing Value Source: NWS Daily Summary

Daily Weather History Graph

Daily Weather History Graph

Search for Another Location

Airport or City:

Trip Planner

Search our weather history database for the weather conditions in past years. The results will help you decide how hot, cold, wet, or windy it might be!

Date:

Astronomy

May. 09, 2012 Rise Set
Actual Time 5:45 AM CDT 7:52 PM CDT
Civil Twilight 5:16 AM CDT 8:22 PM CDT
Nautical Twilight 4:40 AM CDT 8:58 PM CDT
Astronomical Twilight 4:01 AM CDT 9:37 PM CDT
Moon 11:52 PM CDT (5/9) 9:01 AM CDT (5/9)
Length of Visible Light 15h 06m
Length of Day
14h 07m
Waning Gibbous, 82% of the Moon is Illuminated
May 9
Waning Gibbous
May 12
Last Quarter
May 20
New
May 28
First Quarter
Jun 4
Full

Hourly Weather History & Observations

Time (CDT) Temp. Dew Point Humidity Pressure Visibility Wind Dir Wind Speed Gust Speed Precip Events Conditions
12:15 AM 60.8 °F 51.8 °F 72% 29.94 in 10.0 mi West 3.5 mph - N/A   Scattered Clouds
12:35 AM 60.8 °F 51.8 °F 72% 29.94 in 10.0 mi WSW 4.6 mph - N/A   Scattered Clouds
1:15 AM 59.0 °F 51.8 °F 77% 29.94 in 10.0 mi West 4.6 mph - N/A   Scattered Clouds
1:35 AM 59.0 °F 51.8 °F 77% 29.94 in 10.0 mi West 4.6 mph - N/A   Clear
1:55 AM 59.0 °F 51.8 °F 77% 29.94 in 10.0 mi North - - N/A   Mostly Cloudy
2:15 AM 59.0 °F 50.0 °F 72% 29.94 in 10.0 mi West 4.6 mph - N/A   Mostly Cloudy
2:35 AM 57.2 °F 50.0 °F 77% 29.93 in 10.0 mi Calm Calm - N/A   Scattered Clouds
2:55 AM 57.2 °F 51.8 °F 82% 29.93 in 10.0 mi Calm Calm - N/A   Clear
3:15 AM 55.4 °F 50.0 °F 82% 29.92 in 10.0 mi Calm Calm - N/A   Clear
3:35 AM 55.4 °F 50.0 °F 82% 29.92 in 10.0 mi Calm Calm - N/A   Clear
3:55 AM 55.4 °F 50.0 °F 82% 29.92 in 10.0 mi Calm Calm - N/A   Clear
4:15 AM 55.4 °F 50.0 °F 82% 29.92 in 10.0 mi Calm Calm - N/A   Clear
4:35 AM 55.4 °F 48.2 °F 77% 29.92 in 10.0 mi West 3.5 mph - N/A   Clear
4:55 AM 55.4 °F 48.2 °F 77% 29.92 in 10.0 mi West 4.6 mph - N/A   Clear
5:15 AM 55.4 °F 48.2 °F 77% 29.92 in 10.0 mi West 4.6 mph - N/A   Clear
5:35 AM 55.4 °F 48.2 °F 77% 29.93 in 10.0 mi WNW 6.9 mph - N/A   Clear
5:55 AM 53.6 °F 48.2 °F 82% 29.93 in 10.0 mi WNW 4.6 mph - N/A   Clear
6:15 AM 53.6 °F 48.2 °F 82% 29.94 in 10.0 mi NW 3.5 mph - N/A   Clear
6:35 AM 55.4 °F 48.2 °F 77% 29.94 in 10.0 mi Calm Calm - N/A   Clear
6:55 AM 55.4 °F 48.2 °F 77% 29.94 in 10.0 mi NW 4.6 mph - N/A   Clear
7:15 AM 57.2 °F 48.2 °F 72% 29.95 in 10.0 mi NW 5.8 mph - N/A   Clear
7:35 AM 59.0 °F 48.2 °F 67% 29.95 in 10.0 mi NW 8.1 mph - N/A   Clear
7:55 AM 60.8 °F 48.2 °F 63% 29.95 in 10.0 mi NW 8.1 mph - N/A   Clear
8:15 AM 60.8 °F 46.4 °F 59% 29.95 in 10.0 mi NW 11.5 mph - N/A   Clear
8:35 AM 60.8 °F 46.4 °F 59% 29.95 in 10.0 mi NW 10.4 mph - N/A   Clear
8:55 AM 62.6 °F 46.4 °F 55% 29.95 in 10.0 mi NW 12.7 mph - N/A   Clear
9:15 AM 62.6 °F 48.2 °F 59% 29.95 in 10.0 mi NNW 10.4 mph - N/A   Clear
9:35 AM 64.4 °F 46.4 °F 52% 29.95 in 10.0 mi WNW 10.4 mph - N/A   Clear
9:55 AM 64.4 °F 46.4 °F 52% 29.95 in 10.0 mi WNW 15.0 mph - N/A   Clear
10:15 AM 64.4 °F 46.4 °F 52% 29.96 in 10.0 mi NW 15.0 mph 23.0 mph N/A   Clear
10:35 AM 66.2 °F 44.6 °F 46% 29.95 in 10.0 mi West 16.1 mph 23.0 mph N/A   Clear
10:55 AM 66.2 °F 44.6 °F 46% 29.96 in 10.0 mi NW 13.8 mph 18.4 mph N/A   Clear
11:15 AM 66.2 °F 42.8 °F 43% 29.96 in 10.0 mi NW 12.7 mph 23.0 mph N/A   Clear
11:35 AM 66.2 °F 44.6 °F 46% 29.95 in 10.0 mi NNW 16.1 mph - N/A   Clear
11:55 AM 68.0 °F 46.4 °F 46% 29.95 in 10.0 mi NNW 15.0 mph 20.7 mph N/A   Clear
12:15 PM 69.8 °F 46.4 °F 43% 29.94 in 10.0 mi NNW 13.8 mph - N/A   Scattered Clouds
12:35 PM 68.0 °F 46.4 °F 46% 29.94 in 10.0 mi NW 12.7 mph 18.4 mph N/A   Scattered Clouds
12:55 PM 69.8 °F 44.6 °F 40% 29.93 in 10.0 mi NW 15.0 mph 23.0 mph N/A   Scattered Clouds
1:15 PM 69.8 °F 46.4 °F 43% 29.92 in 10.0 mi NW 12.7 mph - N/A   Scattered Clouds
1:35 PM 69.8 °F 46.4 °F 43% 29.92 in 10.0 mi WNW 12.7 mph 19.6 mph N/A   Scattered Clouds
1:55 PM 71.6 °F 46.4 °F 41% 29.92 in 10.0 mi WNW 12.7 mph 21.9 mph N/A   Scattered Clouds
2:15 PM 68.0 °F 44.6 °F 43% 29.92 in 10.0 mi NW 12.7 mph 19.6 mph N/A   Mostly Cloudy
2:35 PM 69.8 °F 44.6 °F 40% 29.92 in 10.0 mi WNW 15.0 mph 21.9 mph N/A   Scattered Clouds
2:55 PM 68.0 °F 44.6 °F 43% 29.91 in 10.0 mi NW 13.8 mph 18.4 mph N/A   Scattered Clouds
3:15 PM 68.0 °F 44.6 °F 43% 29.91 in 10.0 mi NW 13.8 mph 17.3 mph N/A   Mostly Cloudy
3:35 PM 71.6 °F 44.6 °F 38% 29.91 in 10.0 mi West 16.1 mph 20.7 mph N/A   Scattered Clouds
3:55 PM 71.6 °F 44.6 °F 38% 29.91 in 10.0 mi WNW 17.3 mph 23.0 mph N/A   Scattered Clouds
4:15 PM 71.6 °F 44.6 °F 38% 29.90 in 10.0 mi WNW 13.8 mph 24.2 mph N/A   Scattered Clouds
4:35 PM 71.6 °F 44.6 °F 38% 29.90 in 10.0 mi NW 12.7 mph 19.6 mph N/A   Scattered Clouds
4:55 PM 71.6 °F 44.6 °F 38% 29.89 in 10.0 mi WNW 18.4 mph 23.0 mph N/A   Clear
5:15 PM 71.6 °F 44.6 °F 38% 29.89 in 10.0 mi NW 11.5 mph 18.4 mph N/A   Clear
5:35 PM 71.6 °F 44.6 °F 38% 29.89 in 10.0 mi NW 12.7 mph 19.6 mph N/A   Scattered Clouds
5:55 PM 69.8 °F 44.6 °F 40% 29.89 in 10.0 mi NW 13.8 mph 18.4 mph N/A   Clear
6:15 PM 69.8 °F 44.6 °F 40% 29.89 in 10.0 mi NW 9.2 mph - N/A   Scattered Clouds
6:35 PM 69.8 °F 46.4 °F 43% 29.89 in 10.0 mi NW 9.2 mph - N/A   Scattered Clouds
6:55 PM 69.8 °F 46.4 °F 43% 29.89 in 10.0 mi NW 8.1 mph - N/A   Scattered Clouds
7:15 PM 66.2 °F 46.4 °F 49% 29.89 in 10.0 mi WNW 6.9 mph - N/A   Scattered Clouds
7:35 PM 66.2 °F 46.4 °F 49% 29.90 in 10.0 mi WNW 4.6 mph - N/A   Scattered Clouds
7:55 PM 64.4 °F 48.2 °F 56% 29.90 in 10.0 mi WNW 3.5 mph - N/A   Scattered Clouds
8:15 PM 62.6 °F 50.0 °F 63% 29.90 in 10.0 mi Calm Calm - N/A   Clear
8:35 PM 60.8 °F 48.2 °F 63% 29.91 in 10.0 mi West 3.5 mph - N/A   Clear
8:55 PM 60.8 °F 50.0 °F 68% 29.91 in 10.0 mi Calm Calm - N/A   Scattered Clouds
9:15 PM 60.8 °F 51.8 °F 72% 29.92 in 10.0 mi Calm Calm - N/A   Scattered Clouds
9:35 PM 59.0 °F 48.2 °F 67% 29.92 in 10.0 mi NW 3.5 mph - N/A   Scattered Clouds
9:55 PM 59.0 °F 48.2 °F 67% 29.92 in 10.0 mi Calm Calm - N/A   Scattered Clouds
10:15 PM 57.2 °F 51.8 °F 82% 29.93 in 10.0 mi Calm Calm - N/A   Scattered Clouds
10:35 PM 57.2 °F 48.2 °F 72% 29.93 in 10.0 mi NE 4.6 mph - N/A   Clear
10:55 PM 59.0 °F 48.2 °F 67% 29.94 in 10.0 mi NE 3.5 mph - N/A   Mostly Cloudy
11:15 PM 57.2 °F 48.2 °F 72% 29.94 in 10.0 mi Calm Calm - N/A   Scattered Clouds
11:35 PM 57.2 °F 48.2 °F 72% 29.94 in 10.0 mi Calm Calm - N/A   Scattered Clouds
11:55 PM 57.2 °F 50.0 °F 77% 29.94 in 10.0 mi Calm Calm - N/A   Clear